| time (UTC) | temp F | wind direction | speed knots | gust knots | rain 1hr in | rain 24hr in | rain mn in | humidity % | barometer mb |
| 20260506004552 | 36 | 350 | 3.5 | 7.0 | 0.00 | 0.00 | 0.00 | 69 | 1016.6 |
| 20260506003056 | 36 | 350 | 2.6 | 8.7 | 0.00 | 0.00 | 0.00 | 71 | 1016.4 |
| 20260506001555 | 37 | 350 | 7.0 | 13.9 | 0.00 | 0.00 | 0.00 | 67 | 1016.1 |
| 20260506000054 | 38 | 350 | 6.1 | 12.2 | 0.00 | 0.00 | 0.00 | 61 | 1016.0 |
| 20260505234552 | 39 | 350 | 3.5 | 8.7 | 0.00 | 0.00 | 0.00 | 56 | 1015.5 |
| 20260505233104 | 39 | 350 | 2.6 | 7.8 | 0.00 | 0.00 | 0.00 | 57 | 1015.4 |
| 20260505231553 | 38 | 350 | 2.6 | 9.6 | 0.00 | 0.00 | 0.00 | 64 | 1015.0 |
| 20260505230100 | 39 | 350 | 6.1 | 11.3 | 0.00 | 0.00 | 0.00 | 64 | 1015.1 |
| 20260505224552 | 41 | 350 | 4.3 | 9.6 | 0.00 | 0.00 | 0.00 | 54 | 1014.6 |
| 20260505223052 | 40 | 350 | 6.1 | 10.4 | 0.00 | 0.00 | 0.00 | 59 | 1014.6 |
| 20260505221555 | 40 | 350 | 5.2 | 12.2 | 0.00 | 0.00 | 0.00 | 59 | 1014.9 |
| 20260505220055 | 40 | 350 | 5.2 | 13.9 | 0.00 | 0.00 | 0.00 | 60 | 1014.7 |
| 20260505214601 | 40 | 350 | 6.1 | 14.8 | 0.00 | 0.00 | 0.00 | 53 | 1014.5 |
| 20260505213052 | 41 | 350 | 2.6 | 8.7 | 0.00 | 0.00 | 0.00 | 54 | 1014.6 |
| 20260505211549 | 40 | 350 | 6.1 | 12.2 | 0.00 | 0.00 | 0.00 | 56 | 1014.8 |
| 20260505210051 | 40 | 350 | 7.8 | 14.8 | 0.00 | 0.00 | 0.00 | 52 | 1014.9 |
| 20260505204548 | 41 | 44 | 4.3 | 12.2 | 0.00 | 0.00 | 0.00 | 53 | 1014.8 |
| 20260505203047 | 40 | 350 | 7.0 | 13.9 | 0.00 | 0.00 | 0.00 | 57 | 1015.1 |
| 20260505201557 | 40 | 350 | 6.1 | 9.6 | 0.00 | 0.00 | 0.00 | 54 | 1015.1 |
| 20260505200056 | 40 | 350 | 4.3 | 10.4 | 0.00 | 0.00 | 0.00 | 57 | 1015.2 |
| 20260505194553 | 40 | 350 | 3.5 | 7.8 | 0.00 | 0.00 | 0.00 | 52 | 1014.8 |
| 20260505193053 | 40 | 350 | 5.2 | 10.4 | 0.00 | 0.00 | 0.00 | 51 | 1015.0 |
| 20260505191605 | 40 | 350 | 7.8 | 12.2 | 0.00 | 0.00 | 0.00 | 51 | 1014.9 |
| 20260505184551 | 42 | 312 | 6.1 | 12.2 | 0.00 | 0.00 | 0.00 | 47 | 1014.6 |
| 20260505183112 | 41 | 350 | 8.7 | 13.9 | 0.00 | 0.00 | 0.00 | 46 | 1014.9 |
| 20260505181553 | 41 | 336 | 6.1 | 12.2 | 0.00 | 0.00 | 0.00 | 46 | 1015.1 |
| 20260505180057 | 41 | 350 | 4.3 | 12.2 | 0.00 | 0.00 | 0.00 | 47 | 1015.3 |
| 20260505174551 | 40 | 350 | 3.5 | 7.8 | 0.00 | 0.00 | 0.00 | 49 | 1015.2 |
| 20260505173054 | 40 | 350 | 6.1 | 10.4 | 0.00 | 0.00 | 0.00 | 50 | 1015.1 |
| 20260505171558 | 40 | 350 | 5.2 | 11.3 | 0.00 | 0.00 | 0.00 | 50 | 1015.5 |
| 20260505170051 | 39 | 350 | 5.2 | 11.3 | 0.00 | 0.00 | 0.00 | 52 | 1015.7 |
| 20260505164550 | 39 | 350 | 3.5 | 11.3 | 0.00 | 0.00 | 0.00 | 55 | 1015.6 |
| 20260505163050 | 39 | 350 | 6.1 | 11.3 | 0.00 | 0.00 | 0.00 | 56 | 1015.6 |
| 20260505161605 | 38 | 350 | 4.3 | 8.7 | 0.00 | 0.00 | 0.00 | 58 | 1015.7 |
| 20260505153051 | 37 | 350 | 4.3 | 9.6 | 0.00 | 0.00 | 0.00 | 63 | 1015.9 |
| 20260505151606 | 37 | 350 | 3.5 | 7.8 | 0.00 | 0.00 | 0.00 | 66 | 1015.6 |
| 20260505124555 | 38 | 350 | 2.6 | 4.3 | 0.00 | 0.00 | 0.00 | 79 | 1014.6 |
| 20260505123051 | 38 | 350 | 0.9 | 2.6 | 0.00 | 0.00 | 0.00 | 80 | 1014.4 |
| 20260505121553 | 38 | 350 | 0.9 | 1.7 | 0.00 | 0.00 | 0.00 | 81 | 1014.1 |
| 20260505120111 | 38 | 0 | 0.0 | 1.7 | 0.00 | 0.00 | 0.00 | 81 | 1014.1 |
| 20260505114553 | 38 | 0 | 0.0 | 1.7 | 0.00 | 0.00 | 0.00 | 81 | 1014.1 |
| 20260505113052 | 38 | 350 | 0.9 | 2.6 | 0.00 | 0.00 | 0.00 | 82 | 1014.0 |
| 20260505111552 | 38 | 350 | 0.9 | 3.5 | 0.00 | 0.00 | 0.00 | 83 | 1013.9 |
| 20260505101553 | 38 | 350 | 0.9 | 2.6 | 0.00 | 0.00 | 0.00 | 82 | 1014.1 |
| 20260505100057 | 38 | 350 | 0.9 | 2.6 | 0.00 | 0.00 | 0.00 | 82 | 1014.2 |
| 20260505094556 | 38 | 350 | 0.9 | 3.5 | 0.00 | 0.00 | 0.00 | 82 | 1014.1 |
| 20260505093058 | 38 | 350 | 1.7 | 8.7 | 0.00 | 0.00 | 0.00 | 86 | 1014.5 |
| 20260505091552 | 38 | 350 | 3.5 | 7.8 | 0.00 | 0.00 | 0.00 | 88 | 1014.5 |
| 20260505090053 | 38 | 350 | 1.7 | 4.3 | 0.00 | 0.00 | 0.00 | 88 | 1014.5 |
| 20260505084551 | 38 | 350 | 1.7 | 4.3 | 0.00 | 0.00 | 0.00 | 87 | 1014.5 |
| 20260505083053 | 38 | 350 | 1.7 | 3.5 | 0.00 | 0.00 | 0.00 | 86 | 1014.5 |
| 20260505081604 | 38 | 350 | 1.7 | 7.0 | 0.00 | 0.00 | 0.00 | 85 | 1014.6 |
| 20260505080058 | 39 | 350 | 3.5 | 8.7 | 0.00 | 0.00 | 0.00 | 83 | 1014.8 |
| 20260505074602 | 40 | 350 | 4.3 | 12.2 | 0.00 | 0.00 | 0.00 | 77 | 1014.5 |
| 20260505071600 | 41 | 350 | 1.7 | 9.6 | 0.00 | 0.00 | 0.00 | 71 | 1014.5 |
| 20260505070052 | 42 | 350 | 3.5 | 7.0 | 0.00 | 0.00 | 0.00 | 69 | 1014.4 |
| 20260505064552 | 42 | 350 | 2.6 | 5.2 | 0.00 | 0.00 | 0.00 | 67 | 1014.3 |
| 20260505063048 | 42 | 350 | 1.7 | 4.3 | 0.00 | 0.00 | 0.00 | 64 | 1014.1 |
| 20260505061556 | 42 | 350 | 1.7 | 3.5 | 0.00 | 0.00 | 0.00 | 64 | 1014.1 |
| 20260505060052 | 42 | 350 | 1.7 | 4.3 | 0.00 | 0.00 | 0.00 | 62 | 1014.1 |
| 20260505054622 | 43 | 350 | 2.6 | 5.2 | 0.00 | 0.00 | 0.00 | 61 | 1014.2 |
| 20260505053103 | 43 | 350 | 2.6 | 5.2 | 0.00 | 0.00 | 0.00 | 60 | 1014.4 |
| 20260505051552 | 43 | 350 | 4.3 | 8.7 | 0.00 | 0.00 | 0.00 | 60 | 1014.4 |
| 20260505041556 | 45 | 350 | 5.2 | 9.6 | 0.00 | 0.00 | 0.00 | 55 | 1014.2 |
| 20260505040056 | 45 | 350 | 2.6 | 7.0 | 0.00 | 0.00 | 0.00 | 57 | 1014.2 |
| 20260505034547 | 45 | 350 | 3.5 | 7.0 | 0.00 | 0.00 | 0.00 | 57 | 1013.8 |
| 20260505033050 | 45 | 350 | 2.6 | 5.2 | 0.00 | 0.00 | 0.00 | 57 | 1013.9 |
| 20260505031605 | 45 | 350 | 2.6 | 7.0 | 0.00 | 0.00 | 0.00 | 57 | 1013.8 |
| 20260505030049 | 45 | 350 | 2.6 | 5.2 | 0.00 | 0.00 | 0.00 | 56 | 1013.7 |
| 20260505024552 | 45 | 350 | 1.7 | 4.3 | 0.00 | 0.00 | 0.00 | 55 | 1013.6 |
| 20260505023108 | 45 | 350 | 2.6 | 7.8 | 0.00 | 0.00 | 0.00 | 55 | 1013.4 |
| 20260505021549 | 45 | 350 | 2.6 | 5.2 | 0.00 | 0.00 | 0.00 | 54 | 1013.2 |
| 20260505020049 | 46 | 350 | 3.5 | 7.8 | 0.00 | 0.00 | 0.00 | 53 | 1013.1 |
| 20260505014601 | 46 | 350 | 5.2 | 9.6 | 0.00 | 0.00 | 0.00 | 53 | 1013.1 |
| 20260505013106 | 46 | 350 | 4.3 | 8.7 | 0.00 | 0.00 | 0.00 | 52 | 1013.0 |
| 20260505011551 | 47 | 350 | 5.2 | 10.4 | 0.00 | 0.00 | 0.00 | 50 | 1013.0 |
| 20260505010052 | 47 | 350 | 6.1 | 9.6 | 0.00 | 0.00 | 0.00 | 50 | 1012.8 |